Find Starlink 34942

NORAD ID: 65181 Int'l Des: 2025-175 Owner: SPXS Country: US Constellation: starlink operational
LEOCIRCULARRETROGRADESSO

当前视图

正在加载3D地球...

About Starlink 34942

Starlink 34942 (NORAD 65181) is a starlink constellation satellite (v2 mini) launched Aug 14, 2025 by SPXS of US. It operates in LEO, CIRCULAR, RETROGRADE, SSO orbit with a mass of 575.00 kg.

即将过境

Passes for default location (London). Set your location on the main map for personalized predictions.

高度历史

Loading altitude history...

两行轨道根数

1 65181U 25175H 26263.21237185 .00011059 00000-0 34419-3 0 9999
2 65181 97.2846 132.2676 0002418 105.6377 254.5132 15.33459489 62067
Epoch: Sep 20, 2026 • Age: 20 hours

当前状态

高度 468.1 km
远地点 / 近地点 N/A
速度 7.63 km/s
星下点 6.43°N, 110.07°E
发射日期 Aug 14, 2025
运行时间 1.1 years
类型 internet

技术详情

分类 Payload
质量 575.00 kg
干质量 530.00 kg
长度 0.30 m
跨度 29.00 m
形状 ? Box + pan
制造商 SPXS
平台类型 Starlink V2MO
阶段状态 In Orbit
所有者/国家 SPXS/US

Most Searched